User: anonymous   Login
Location: Niedergestelen
(46.3129°N, 7.7822°E)
Time: 15:53:03
(UTC+00:00)
Language:

YAOGAN 6 - Orbit

View from above orbital plane
View from above orbital plane
View from above satellite
View from above satellite

Ground track
Ground track

The orbit data is extracted from the following two-line orbital elements,

1 34839U 09021A   21062.88097353  .00001050  00000-0  41384-4 0  9993
2 34839  97.0452  62.6356 0027749 172.6491 187.5162 15.27315674659396
Epoch (UTC): 03 March 2021 21:08:36
Eccentricity: 0.0027749
inclination: 97.0452°
perigee height: 465 km
apogee height: 503 km
right ascension of ascending node: 62.6356°
argument of perigee: 172.6491°
revolutions per day: 15.27315674
mean anomaly at epoch: 187.5162°
orbit number at epoch: 65939

The dashed part of the orbit path shows where the satellite is in the earth's shadow,  

DLR